Location: Cactus School
(34.5700°N, 118.0931°W)
Time: 09:28:41
(UTC-08:00)

Courier 1B - Visible Passes

Search period start: 22 November 2019 00:00
Search period end: 02 December 2019 00:00
Orbit: 963 x 1209 km, 28.3° (Epoch: 21 November)

Date Brightness Start Highest point End Pass type
(mag) Time Alt. Az. Time Alt. Az. Time Alt. Az.
22 Nov 10.0 02:43:24 16° ESE 02:43:24 16° ESE 02:45:15 10° ESE visible
22 Nov 8.6 04:30:19 25° SW 04:33:47 41° SSE 04:40:06 10° E visible
23 Nov 8.7 03:40:09 36° SSE 03:40:09 36° SSE 03:46:21 10° E visible
23 Nov 8.3 05:27:04 11° WSW 05:33:48 51° S 05:40:17 10° ESE visible
24 Nov 9.7 02:49:56 20° ESE 02:49:56 20° ESE 02:52:28 10° ESE visible
24 Nov 8.3 04:36:50 30° SW 04:40:03 49° S 04:46:39 10° E visible
25 Nov 8.4 03:46:34 46° SSE 03:46:34 46° SSE 03:52:58 10° E visible
25 Nov 8.3 05:33:28 11° WSW 05:40:07 51° S 05:46:40 10° ESE visible
26 Nov 9.5 02:56:15 25° ESE 02:56:15 25° ESE 02:59:12 10° E visible
26 Nov 8.2 04:43:09 32° WSW 04:46:22 53° S 04:53:04 10° ESE visible
27 Nov 8.2 03:52:48 52° S 03:52:48 52° S 03:59:26 10° ESE visible
27 Nov 8.4 05:39:42 11° W 05:46:24 46° S 05:52:53 10° ESE visible
28 Nov 9.3 03:02:26 28° ESE 03:02:26 28° ESE 03:05:44 10° E visible
28 Nov 8.2 04:49:20 30° WSW 04:52:39 50° S 04:59:23 10° ESE visible
29 Nov 8.1 03:58:57 53° S 03:58:57 53° S 04:05:48 10° ESE visible
29 Nov 8.7 05:46:00 10° W 05:52:36 36° SSW 05:58:50 10° SE visible
30 Nov 9.2 03:08:33 30° ESE 03:08:33 30° ESE 03:12:08 10° ESE visible
30 Nov 8.4 04:55:27 27° WSW 04:58:53 43° SSW 05:05:29 10° SE visible
01 Dec 10.4 02:18:10 11° ESE 02:18:10 11° ESE 02:18:24 10° E visible
01 Dec 8.2 04:05:03 48° SSW 04:05:07 48° S 04:12:01 10° ESE visible
01 Dec 9.1 05:52:46 10° WSW 05:58:42 26° SSW 06:04:21 10° SSE visible
